Time,TemperatureF,DewpointF,PressureIn,WindDirection,WindDirectionDegrees,WindSpeedMPH,WindSpeedGustMPH,Humidity,HourlyPrecipIn,Conditions,Clouds,dailyrainin,SoftwareType,DateUTC
2013-02-10 00:01:00,52.0,37.0,30.16,SSE,167,0.0,0.0,56,0.00,,,0.31,,2013-02-10 06:01:00,
2013-02-10 00:11:00,52.0,37.0,30.16,SSE,167,0.0,0.0,56,0.00,,,0.31,,2013-02-10 06:11:00,
2013-02-10 00:21:00,52.0,37.0,30.16,SE,136,2.0,0.0,57,0.00,,,0.00,,2013-02-10 06:21:00,
2013-02-10 00:32:00,52.0,37.0,30.16,East,86,0.0,0.0,57,0.00,,,0.00,,2013-02-10 06:32:00,
2013-02-10 00:42:00,52.0,37.0,30.16,East,86,0.0,0.0,57,0.00,,,0.00,,2013-02-10 06:42:00,
2013-02-10 00:52:00,52.0,37.0,30.17,ESE,115,0.0,3.0,57,0.00,,,0.00,,2013-02-10 06:52:00,
2013-02-10 01:01:00,52.0,37.0,30.16,SE,131,7.0,7.0,57,0.00,,,0.00,,2013-02-10 07:01:00,
2013-02-10 01:11:00,52.0,37.0,30.16,SE,131,7.0,7.0,57,0.00,,,0.00,,2013-02-10 07:11:00,
2013-02-10 01:21:00,52.0,37.0,30.16,ESE,121,0.0,2.0,57,0.00,,,0.00,,2013-02-10 07:21:00,
2013-02-10 01:31:00,52.0,38.0,30.16,SE,125,0.0,4.0,58,0.00,,,0.00,,2013-02-10 07:31:00,
2013-02-10 01:41:00,52.0,38.0,30.16,SE,125,0.0,4.0,58,0.00,,,0.00,,2013-02-10 07:41:00,
2013-02-10 01:52:00,51.0,37.0,30.15,SSE,167,1.0,0.0,59,0.00,,,0.00,,2013-02-10 07:52:00,
2013-02-10 02:01:00,51.0,38.0,30.14,SE,135,5.0,0.0,60,0.00,,,0.00,,2013-02-10 08:01:00,
2013-02-10 02:11:00,51.0,38.0,30.14,SE,135,5.0,0.0,60,0.00,,,0.00,,2013-02-10 08:11:00,
2013-02-10 02:21:00,52.0,38.0,30.15,SE,132,2.0,0.0,59,0.00,,,0.00,,2013-02-10 08:21:00,
2013-02-10 02:32:00,52.0,39.0,30.16,SE,132,4.0,5.0,60,0.00,,,0.00,,2013-02-10 08:32:00,
2013-02-10 02:43:00,52.0,39.0,30.16,SE,132,4.0,5.0,60,0.00,,,0.00,,2013-02-10 08:43:00,
2013-02-10 02:52:00,52.0,38.0,30.15,SE,142,3.0,0.0,59,0.00,,,0.00,,2013-02-10 08:52:00,
2013-02-10 03:02:00,52.0,38.0,30.16,South,177,4.0,5.0,59,0.00,,,0.00,,2013-02-10 09:02:00,
2013-02-10 03:11:00,52.0,38.0,30.16,South,177,4.0,5.0,59,0.00,,,0.00,,2013-02-10 09:11:00,
2013-02-10 03:21:00,52.0,39.0,30.15,SE,138,4.0,4.0,60,0.00,,,0.00,,2013-02-10 09:21:00,
2013-02-10 03:31:00,52.0,39.0,30.15,SE,135,3.0,0.0,60,0.00,,,0.00,,2013-02-10 09:31:00,
2013-02-10 03:41:00,52.0,39.0,30.15,SE,135,3.0,0.0,60,0.00,,,0.00,,2013-02-10 09:41:00,
2013-02-10 03:52:00,52.0,39.0,30.14,SE,146,1.0,7.0,61,0.00,,,0.00,,2013-02-10 09:52:00,
2013-02-10 04:01:00,51.0,38.0,30.14,South,177,1.0,5.0,61,0.00,,,0.00,,2013-02-10 10:01:00,
2013-02-10 04:11:00,51.0,38.0,30.13,ESE,117,4.0,5.0,62,0.00,,,0.00,,2013-02-10 10:11:00,
2013-02-10 04:21:00,51.0,38.0,30.13,ESE,117,4.0,5.0,62,0.00,,,0.00,,2013-02-10 10:21:00,
2013-02-10 04:31:00,50.0,38.0,30.13,ESE,117,5.0,5.0,63,0.00,,,0.00,,2013-02-10 10:31:00,
2013-02-10 04:41:00,50.0,38.0,30.13,ESE,117,5.0,5.0,63,0.00,,,0.00,,2013-02-10 10:41:00,
2013-02-10 04:51:00,50.0,38.0,30.13,SSE,156,0.0,0.0,63,0.00,,,0.00,,2013-02-10 10:51:00,
2013-02-10 05:01:00,51.0,38.0,30.12,SE,132,7.0,0.0,61,0.00,,,0.00,,2013-02-10 11:01:00,
2013-02-10 05:11:00,51.0,38.0,30.12,SE,132,7.0,0.0,61,0.00,,,0.00,,2013-02-10 11:11:00,
2013-02-10 05:21:00,51.0,38.0,30.12,South,173,4.0,5.0,60,0.00,,,0.00,,2013-02-10 11:21:00,
2013-02-10 05:32:00,51.0,38.0,30.12,ESE,122,5.0,5.0,60,0.00,,,0.00,,2013-02-10 11:32:00,
2013-02-10 05:42:00,51.0,38.0,30.12,ESE,122,5.0,5.0,60,0.00,,,0.00,,2013-02-10 11:42:00,
2013-02-10 05:52:00,51.0,38.0,30.11,East,96,5.0,5.0,60,0.00,,,0.00,,2013-02-10 11:52:00,
2013-02-10 06:01:00,51.0,38.0,30.11,East,89,4.0,5.0,60,0.00,,,0.00,,2013-02-10 12:01:00,
2013-02-10 06:12:00,51.0,38.0,30.10,East,90,5.0,5.0,61,0.00,,,0.00,,2013-02-10 12:12:00,
2013-02-10 06:21:00,51.0,38.0,30.10,East,90,5.0,5.0,61,0.00,,,0.00,,2013-02-10 12:21:00,
2013-02-10 06:32:00,51.0,38.0,30.11,SSE,148,5.0,9.0,61,0.00,,,0.00,,2013-02-10 12:32:00,
2013-02-10 06:41:00,51.0,38.0,30.11,SSE,148,5.0,9.0,61,0.00,,,0.00,,2013-02-10 12:41:00,
2013-02-10 06:52:00,51.0,37.0,30.12,SE,128,6.0,6.0,59,0.00,,,0.00,,2013-02-10 12:52:00,
2013-02-10 07:02:00,52.0,38.0,30.11,South,180,6.0,6.0,58,0.00,,,0.00,,2013-02-10 13:02:00,
2013-02-10 07:11:00,52.0,38.0,30.11,South,180,6.0,6.0,58,0.00,,,0.00,,2013-02-10 13:11:00,
2013-02-10 07:21:00,52.0,37.0,30.11,South,191,4.0,4.0,57,0.00,,,0.00,,2013-02-10 13:21:00,
2013-02-10 07:31:00,52.0,37.0,30.11,East,87,3.0,0.0,56,0.00,,,0.00,,2013-02-10 13:31:00,
2013-02-10 07:41:00,52.0,37.0,30.11,East,87,3.0,0.0,56,0.00,,,0.00,,2013-02-10 13:41:00,
2013-02-10 07:52:00,52.0,36.0,30.13,SSE,150,8.0,0.0,55,0.00,,,0.00,,2013-02-10 13:52:00,
2013-02-10 08:02:00,53.0,37.0,30.13,SSE,158,7.0,11.0,55,0.00,,,0.00,,2013-02-10 14:02:00,
2013-02-10 08:11:00,53.0,37.0,30.13,SSE,158,7.0,11.0,55,0.00,,,0.00,,2013-02-10 14:11:00,
2013-02-10 08:21:00,53.0,37.0,30.12,ESE,111,8.0,8.0,55,0.00,,,0.00,,2013-02-10 14:21:00,
2013-02-10 08:31:00,53.0,37.0,30.10,South,183,9.0,9.0,55,0.00,,,0.00,,2013-02-10 14:31:00,
2013-02-10 08:41:00,53.0,37.0,30.10,South,183,9.0,9.0,55,0.00,,,0.00,,2013-02-10 14:41:00,
2013-02-10 08:52:00,54.0,39.0,30.10,South,176,8.0,10.0,56,0.00,,,0.00,,2013-02-10 14:52:00,
2013-02-10 09:01:00,54.0,39.0,30.09,East,83,2.0,5.0,56,0.00,,,0.00,,2013-02-10 15:01:00,
2013-02-10 09:11:00,54.0,39.0,30.09,East,83,2.0,5.0,56,0.00,,,0.00,,2013-02-10 15:11:00,
2013-02-10 09:21:00,54.0,39.0,30.09,SSE,153,10.0,10.0,57,0.00,,,0.00,,2013-02-10 15:21:00,
2013-02-10 09:31:00,55.0,40.0,30.09,SSE,150,3.0,6.0,57,0.00,,,0.00,,2013-02-10 15:31:00,
2013-02-10 09:42:00,55.0,40.0,30.09,SSE,150,3.0,6.0,57,0.00,,,0.00,,2013-02-10 15:42:00,
2013-02-10 09:52:00,54.0,40.0,30.08,ESE,118,4.0,8.0,58,0.00,,,0.00,,2013-02-10 15:52:00,
2013-02-10 10:02:00,53.0,42.0,30.08,SE,132,8.0,8.0,65,0.00,,,0.00,,2013-02-10 16:02:00,
2013-02-10 10:11:00,52.0,43.0,30.07,SE,134,6.0,6.0,72,0.00,,,0.00,,2013-02-10 16:11:00,
2013-02-10 10:21:00,52.0,43.0,30.07,SE,134,6.0,6.0,72,0.00,,,0.00,,2013-02-10 16:21:00,
2013-02-10 10:32:00,52.0,42.0,30.06,SSE,162,4.0,6.0,69,0.01,,,0.00,,2013-02-10 16:32:00,
2013-02-10 10:42:00,53.0,42.0,30.06,SE,143,6.0,7.0,67,0.01,,,0.00,,2013-02-10 16:42:00,
2013-02-10 10:52:00,53.0,42.0,30.06,SE,143,6.0,7.0,67,0.01,,,0.00,,2013-02-10 16:52:00,
2013-02-10 11:01:00,53.0,42.0,30.06,SE,142,6.0,10.0,66,0.01,,,0.00,,2013-02-10 17:01:00,
2013-02-10 11:11:00,54.0,44.0,30.06,SSE,165,6.0,7.0,68,0.00,,,0.00,,2013-02-10 17:11:00,
2013-02-10 11:21:00,54.0,44.0,30.06,SSE,165,6.0,7.0,68,0.00,,,0.00,,2013-02-10 17:21:00,
2013-02-10 11:32:00,52.0,44.0,30.05,SSE,159,3.0,0.0,75,0.00,,,0.00,,2013-02-10 17:32:00,
2013-02-10 11:42:00,52.0,44.0,30.03,South,173,9.0,9.0,73,0.00,,,0.00,,2013-02-10 17:42:00,
2013-02-10 11:52:00,52.0,44.0,30.03,South,173,9.0,9.0,73,0.00,,,0.00,,2013-02-10 17:52:00,
2013-02-10 12:02:00,53.0,45.0,30.03,SSE,166,8.0,10.0,73,0.00,,,0.00,,2013-02-10 18:02:00,
2013-02-10 12:11:00,52.0,45.0,30.03,East,94,6.0,8.0,76,0.00,,,0.00,,2013-02-10 18:11:00,
2013-02-10 12:21:00,52.0,45.0,30.03,East,94,6.0,8.0,76,0.00,,,0.00,,2013-02-10 18:21:00,
2013-02-10 12:32:00,50.0,46.0,30.01,SE,127,6.0,7.0,87,0.02,,,0.00,,2013-02-10 18:32:00,
2013-02-10 12:42:00,50.0,46.0,30.01,SE,127,6.0,7.0,87,0.02,,,0.00,,2013-02-10 18:42:00,
2013-02-10 12:52:00,49.0,47.0,29.98,SE,134,8.0,8.0,92,0.02,,,0.00,,2013-02-10 18:52:00,
2013-02-10 13:02:00,49.0,48.0,29.99,SE,134,8.0,9.0,97,0.02,,,0.00,,2013-02-10 19:02:00,
2013-02-10 13:11:00,49.0,48.0,29.98,ESE,120,6.0,9.0,97,0.02,,,0.00,,2013-02-10 19:11:00,
2013-02-10 13:21:00,49.0,48.0,29.98,ESE,120,6.0,9.0,97,0.02,,,0.00,,2013-02-10 19:21:00,
2013-02-10 13:32:00,50.0,50.0,29.94,SSE,155,8.0,8.0,99,0.16,,,0.00,,2013-02-10 19:32:00,
2013-02-10 13:42:00,50.0,50.0,29.94,ENE,69,7.0,7.0,100,0.16,,,0.00,,2013-02-10 19:42:00,
2013-02-10 13:52:00,50.0,50.0,29.94,ENE,69,7.0,7.0,100,0.16,,,0.00,,2013-02-10 19:52:00,
2013-02-10 14:02:00,50.0,50.0,29.97,SSE,167,5.0,5.0,100,0.16,,,0.00,,2013-02-10 20:02:00,
2013-02-10 14:11:00,51.0,51.0,29.95,SE,135,7.0,10.0,100,0.25,,,0.00,,2013-02-10 20:11:00,
2013-02-10 14:21:00,51.0,51.0,29.95,SE,135,7.0,10.0,100,0.25,,,0.00,,2013-02-10 20:21:00,
2013-02-10 14:32:00,51.0,51.0,29.95,SE,125,6.0,11.0,100,0.25,,,0.00,,2013-02-10 20:32:00,
2013-02-10 14:42:00,51.0,51.0,29.96,SE,131,6.0,6.0,100,0.25,,,0.00,,2013-02-10 20:42:00,
2013-02-10 14:52:00,51.0,51.0,29.96,SE,131,6.0,6.0,100,0.25,,,0.00,,2013-02-10 20:52:00,
2013-02-10 15:02:00,51.0,51.0,29.96,SE,146,2.0,6.0,100,0.25,,,0.00,,2013-02-10 21:02:00,
2013-02-10 15:11:00,52.0,52.0,29.95,SSE,166,8.0,8.0,100,0.13,,,0.00,,2013-02-10 21:11:00,
2013-02-10 15:21:00,52.0,52.0,29.95,SSE,166,8.0,8.0,100,0.13,,,0.00,,2013-02-10 21:21:00,
2013-02-10 15:32:00,52.0,52.0,29.97,SSW,197,10.0,10.0,100,0.13,,,0.00,,2013-02-10 21:32:00,
2013-02-10 15:42:00,52.0,52.0,29.99,NW,319,2.0,0.0,100,0.13,,,0.00,,2013-02-10 21:42:00,
2013-02-10 15:52:00,52.0,52.0,29.99,NW,319,2.0,0.0,100,0.13,,,0.00,,2013-02-10 21:52:00,
2013-02-10 16:01:00,52.0,52.0,30.00,North,4,0.0,0.0,100,0.13,,,0.00,,2013-02-10 22:01:00,
2013-02-10 16:11:00,53.0,53.0,29.94,SSE,158,8.0,8.0,100,0.03,,,0.00,,2013-02-10 22:11:00,
2013-02-10 16:21:00,53.0,53.0,29.94,SSE,158,8.0,8.0,100,0.03,,,0.00,,2013-02-10 22:21:00,
2013-02-10 16:32:00,53.0,53.0,29.95,South,173,7.0,7.0,100,0.03,,,0.00,,2013-02-10 22:32:00,
2013-02-10 16:42:00,54.0,54.0,29.93,SE,145,10.0,10.0,100,0.03,,,0.00,,2013-02-10 22:42:00,
2013-02-10 16:52:00,54.0,54.0,29.93,SE,145,10.0,10.0,100,0.03,,,0.00,,2013-02-10 22:52:00,
2013-02-10 17:02:00,54.0,54.0,29.90,South,186,9.0,13.0,100,0.03,,,0.00,,2013-02-10 23:02:00,
2013-02-10 17:11:00,54.0,54.0,29.90,South,186,9.0,13.0,100,0.03,,,0.00,,2013-02-10 23:11:00,
2013-02-10 17:22:00,54.0,54.0,29.92,SSE,163,11.0,11.0,100,0.02,,,0.00,,2013-02-10 23:22:00,
2013-02-10 17:32:00,54.0,54.0,29.94,South,180,6.0,8.0,100,0.02,,,0.00,,2013-02-10 23:32:00,
2013-02-10 17:42:00,54.0,54.0,29.93,ESE,118,6.0,8.0,100,0.02,,,0.00,,2013-02-10 23:42:00,
2013-02-10 17:52:00,54.0,54.0,29.93,ESE,118,6.0,8.0,100,0.02,,,0.00,,2013-02-10 23:52:00,
2013-02-10 18:02:00,54.0,54.0,29.90,SE,138,6.0,0.0,100,0.02,,,0.00,,2013-02-11 00:02:00,
2013-02-10 18:11:00,54.0,54.0,29.91,SE,135,7.0,7.0,100,0.02,,,0.00,,2013-02-11 00:11:00,
2013-02-10 18:22:00,54.0,54.0,29.91,SE,135,7.0,7.0,100,0.02,,,0.00,,2013-02-11 00:22:00,
2013-02-10 18:32:00,54.0,54.0,29.92,ESE,108,5.0,5.0,100,0.00,,,0.00,,2013-02-11 00:32:00,
2013-02-10 18:42:00,54.0,54.0,29.93,South,186,1.0,7.0,100,0.00,,,0.00,,2013-02-11 00:42:00,
2013-02-10 18:51:00,54.0,54.0,29.93,South,186,1.0,7.0,100,0.00,,,0.00,,2013-02-11 00:51:00,
2013-02-10 19:01:00,54.0,54.0,29.92,SE,142,5.0,6.0,100,0.00,,,0.00,,2013-02-11 01:01:00,
2013-02-10 19:11:00,54.0,54.0,29.92,SE,142,5.0,6.0,100,0.00,,,0.00,,2013-02-11 01:11:00,
2013-02-10 19:21:00,54.0,54.0,29.92,SE,127,0.0,0.0,100,0.00,,,0.00,,2013-02-11 01:21:00,
2013-02-10 19:32:00,55.0,55.0,29.93,SE,125,3.0,5.0,100,0.00,,,0.00,,2013-02-11 01:32:00,
2013-02-10 19:41:00,55.0,55.0,29.93,SSE,159,5.0,5.0,100,0.00,,,0.00,,2013-02-11 01:41:00,
2013-02-10 19:52:00,55.0,55.0,29.93,SSE,159,5.0,5.0,100,0.00,,,0.00,,2013-02-11 01:52:00,
2013-02-10 20:01:00,55.0,55.0,29.93,SE,134,0.0,0.0,100,0.00,,,0.00,,2013-02-11 02:01:00,
2013-02-10 20:11:00,55.0,55.0,29.93,SE,134,0.0,0.0,100,0.00,,,0.00,,2013-02-11 02:11:00,
2013-02-10 20:21:00,55.0,55.0,29.93,SE,141,6.0,7.0,100,0.00,,,0.00,,2013-02-11 02:21:00,
2013-02-10 20:31:00,55.0,55.0,29.92,ESE,107,5.0,5.0,100,0.00,,,0.00,,2013-02-11 02:31:00,
2013-02-10 20:42:00,55.0,55.0,29.93,SSE,152,4.0,5.0,100,0.00,,,0.00,,2013-02-11 02:42:00,
2013-02-10 20:52:00,55.0,55.0,29.93,SSE,152,4.0,5.0,100,0.00,,,0.00,,2013-02-11 02:52:00,
2013-02-10 21:01:00,56.0,56.0,29.93,SSE,163,3.0,0.0,100,0.00,,,0.00,,2013-02-11 03:01:00,
2013-02-10 21:11:00,56.0,56.0,29.94,SSE,165,0.0,6.0,100,0.00,,,0.00,,2013-02-11 03:11:00,
2013-02-10 21:21:00,56.0,56.0,29.94,SSE,165,0.0,6.0,100,0.00,,,0.00,,2013-02-11 03:21:00,
2013-02-10 21:31:00,57.0,57.0,29.94,South,174,0.0,0.0,100,0.00,,,0.00,,2013-02-11 03:31:00,
2013-02-10 21:42:00,57.0,57.0,29.95,SSE,160,0.0,3.0,100,0.00,,,0.00,,2013-02-11 03:42:00,
2013-02-10 21:52:00,57.0,57.0,29.95,SSE,160,0.0,3.0,100,0.00,,,0.00,,2013-02-11 03:52:00,
2013-02-10 22:01:00,57.0,57.0,29.94,SSW,210,0.0,5.0,100,0.00,,,0.00,,2013-02-11 04:01:00,
2013-02-10 22:11:00,57.0,57.0,29.94,SSW,210,0.0,5.0,100,0.00,,,0.00,,2013-02-11 04:11:00,
2013-02-10 22:21:00,57.0,57.0,29.95,SSE,150,4.0,0.0,100,0.00,,,0.00,,2013-02-11 04:21:00,
2013-02-10 22:31:00,57.0,57.0,29.95,SSE,152,5.0,0.0,100,0.00,,,0.00,,2013-02-11 04:31:00,
2013-02-10 22:42:00,58.0,58.0,29.95,SE,143,1.0,0.0,100,0.00,,,0.00,,2013-02-11 04:42:00,
2013-02-10 22:52:00,58.0,58.0,29.95,SE,143,1.0,0.0,100,0.00,,,0.00,,2013-02-11 04:52:00,
2013-02-10 23:01:00,58.0,58.0,29.94,SSE,159,2.0,0.0,99,0.00,,,0.00,,2013-02-11 05:01:00,
2013-02-10 23:11:00,58.0,58.0,29.95,SSE,153,4.0,4.0,99,0.00,,,0.00,,2013-02-11 05:11:00,
2013-02-10 23:22:00,58.0,58.0,29.95,SSE,153,4.0,4.0,99,0.00,,,0.00,,2013-02-11 05:22:00,
2013-02-10 23:31:00,59.0,59.0,29.94,South,176,0.0,6.0,99,0.00,,,0.00,,2013-02-11 05:31:00,
2013-02-10 23:42:00,59.0,58.0,29.93,SE,132,3.0,3.0,98,0.00,,,0.00,,2013-02-11 05:42:00,
2013-02-10 23:52:00,59.0,58.0,29.93,SE,132,3.0,3.0,98,0.00,,,0.00,,2013-02-11 05:52:00,